Date String (YYYY-MM-DD hh:mm:ss) UTC,Instrument flags,Ambient pressure (hPa),Sample flow (lpm),Bypass flow (lpm),Sample temperature (°C),Ambient temperature (°C),ASC tube jacket temperature (°C),LED temperature (°C),Box temperature (°C),Sample RH (%),Span deviation,Mass concentration (μg/m³),Mass concentration (μg/m³),Mass concentration (μg/m³)
DateTimeUTC,F1_M11,P_M11,Q1_M11,Q2_M11,T1_M11,T2_M11,T3_M11,T4_M11,T5_M11,U1_M11,ZSPAN_M11,X0_M11,X2_M11,X1_M11
2022-07-25 06:00:00,,0830.5,4.99,0.00,32.6,29.4,00.0,40.5,33.0,34.4,0000.8,0014.18,0008.84,0007.76
2022-07-25 06:01:00,,0830.5,5.01,0.00,32.6,29.4,00.0,40.6,33.0,34.3,0001.5,0014.14,0008.78,0007.70
2022-07-25 06:02:00,,0830.5,5.00,0.00,32.6,29.4,00.0,40.6,33.0,34.2,0002.5,0013.74,0008.72,0007.64
2022-07-25 06:03:00,,0830.5,5.01,0.00,32.5,29.0,00.0,40.5,32.9,34.2,0002.7,0013.44,0008.64,0007.57
2022-07-25 06:04:00,,0830.5,5.00,0.00,32.5,28.1,00.0,40.4,32.8,34.3,0003.2,0013.42,0008.61,0007.50
2022-07-25 06:05:00,,0830.4,4.99,0.00,32.4,27.5,00.0,40.4,32.7,34.6,0003.2,0013.41,0008.56,0007.42
2022-07-25 06:06:00,,0830.4,4.99,0.00,32.2,27.4,00.0,40.4,32.5,34.8,0002.7,0013.07,0008.47,0007.35
2022-07-25 06:07:00,,0830.4,5.02,0.00,32.0,27.5,00.0,40.4,32.4,35.2,0002.5,0012.90,0008.43,0007.32
2022-07-25 06:08:00,,0830.4,4.99,0.00,32.1,27.6,00.0,40.3,32.5,35.2,0002.5,0012.78,0008.34,0007.25
2022-07-25 06:09:00,,0830.5,5.01,0.00,32.4,27.8,00.0,40.3,32.6,34.8,0002.8,0012.92,0008.28,0007.18
2022-07-25 06:10:00,,0830.5,4.99,0.00,32.5,27.9,00.0,40.3,32.7,34.6,0002.8,0012.82,0008.21,0007.13
2022-07-25 06:11:00,,0830.5,5.01,0.00,32.5,28.1,00.0,40.3,32.6,34.5,0002.3,0012.66,0008.18,0007.07
2022-07-25 06:12:00,,0830.5,4.99,0.00,32.5,28.2,00.0,40.3,32.6,34.6,0001.3,0012.53,0008.10,0007.03
2022-07-25 06:13:00,,0830.4,5.00,0.00,32.5,28.4,00.0,40.3,32.6,35.0,0001.0,0012.43,0008.04,0007.00
2022-07-25 06:14:00,,0830.5,5.00,0.00,32.5,28.5,00.0,40.4,32.6,34.7,0001.1,0012.30,0007.97,0006.96
2022-07-25 06:15:00,,0830.4,5.01,0.00,32.6,28.6,00.0,40.4,32.7,34.6,0000.2,0012.20,0007.90,0006.91
2022-07-25 06:16:00,,0830.5,5.00,0.00,32.6,28.7,00.0,40.4,32.7,34.4,0000.1,0012.07,0007.82,0006.87
2022-07-25 06:17:00,,0830.5,4.99,0.00,32.5,28.8,00.0,40.5,32.7,34.5,0000.1,0012.41,0007.76,0006.83
2022-07-25 06:18:00,,0830.5,4.99,0.00,32.5,28.8,00.0,40.5,32.7,34.5,-000.1,0012.48,0007.73,0006.80
2022-07-25 06:19:00,,0830.5,4.99,0.00,32.5,28.9,00.0,40.5,32.7,34.7,-000.1,0012.60,0007.79,0006.82
2022-07-25 06:20:00,,0830.5,5.01,0.00,32.4,29.0,00.0,40.5,32.7,34.9,-000.4,0012.45,0007.83,0006.88
2022-07-25 06:21:00,,0830.4,4.99,0.00,32.4,29.0,00.0,40.5,32.7,35.1,-001.0,0012.33,0007.90,0006.93
2022-07-25 06:22:00,,0830.4,4.99,0.00,32.5,29.1,00.0,40.5,32.8,34.9,-001.2,0012.43,0007.96,0006.97
2022-07-25 06:23:00,,0830.4,5.00,0.00,32.6,29.1,00.0,40.5,32.9,34.3,-001.0,0012.59,0008.02,0006.98
2022-07-25 06:24:00,,0830.4,5.00,0.00,32.6,29.2,00.0,40.6,32.9,34.1,-001.5,0012.61,0008.04,0006.97
2022-07-25 06:25:00,,0830.4,5.01,0.00,32.6,29.2,00.0,40.6,32.9,34.1,-001.8,0012.63,0008.06,0006.98
2022-07-25 06:26:00,,0830.4,5.00,0.00,32.6,29.2,00.0,40.6,32.9,34.3,-001.8,0012.50,0008.01,0006.98
2022-07-25 06:27:00,,0830.3,4.99,0.00,32.6,29.3,00.0,40.6,32.9,34.4,-001.7,0012.56,0008.03,0006.98
2022-07-25 06:28:00,,0830.3,5.00,0.00,32.5,29.3,00.0,40.6,32.9,34.4,-001.6,0012.11,0008.03,0006.98
2022-07-25 06:29:00,,0830.3,5.01,0.00,32.5,29.3,00.0,40.6,32.9,34.5,-000.5,0011.93,0007.99,0006.96
2022-07-25 06:30:00,,0830.3,4.99,0.00,32.4,29.4,00.0,40.7,32.9,34.5,0000.0,0011.74,0007.93,0006.95
2022-07-25 06:31:00,,0830.3,5.00,0.00,32.4,29.4,00.0,40.7,32.9,34.4,0000.0,0011.81,0007.93,0006.93
2022-07-25 06:32:00,,0830.3,5.01,0.00,32.4,29.4,00.0,40.7,32.9,34.4,0000.0,0012.03,0007.91,0006.93
2022-07-25 06:33:00,,0830.3,4.99,0.00,32.3,28.8,00.0,40.6,32.9,34.5,0000.0,0012.77,0007.89,0006.93
2022-07-25 06:34:00,,0830.2,5.01,0.00,32.3,27.9,00.0,40.5,32.8,34.6,0000.0,0012.91,0007.86,0006.96
2022-07-25 06:35:00,,0830.2,5.00,0.00,32.2,27.5,00.0,40.4,32.6,34.8,0000.0,0012.99,0007.90,0006.99
2022-07-25 06:36:00,,0830.1,4.99,0.00,32.0,27.4,00.0,40.4,32.4,35.2,0000.0,0013.10,0007.94,0007.03
2022-07-25 06:37:00,,0830.2,5.02,0.00,32.0,27.5,00.0,40.3,32.5,35.0,0000.0,0013.16,0007.95,0007.01
2022-07-25 06:38:00,,0830.3,4.98,0.00,32.2,27.6,00.0,40.3,32.6,34.7,0000.0,0013.11,0007.93,0007.00
2022-07-25 06:39:00,,0830.3,5.01,0.00,32.2,27.8,00.0,40.3,32.6,34.7,0000.0,0013.58,0007.92,0006.99
2022-07-25 06:40:00,,0830.3,5.00,0.00,32.2,27.9,00.0,40.3,32.5,34.7,0000.0,0013.75,0007.91,0007.01
2022-07-25 06:41:00,,0830.2,4.99,0.00,32.2,28.1,00.0,40.3,32.5,34.8,0000.0,0013.88,0007.96,0007.01
2022-07-25 06:42:00,,0830.2,5.02,0.00,32.2,28.2,00.0,40.3,32.5,35.0,0000.0,0013.82,0007.95,0007.01
2022-07-25 06:43:00,,0830.3,5.00,0.00,32.2,28.4,00.0,40.3,32.5,34.8,-000.0,0013.65,0007.95,0007.01
2022-07-25 06:44:00,,0830.2,4.99,0.00,32.3,28.5,00.0,40.3,32.6,34.5,0000.1,0012.80,0007.95,0007.00
2022-07-25 06:45:00,,0830.1,4.99,0.00,32.3,28.6,00.0,40.3,32.6,34.5,0000.3,0012.93,0007.99,0007.00
2022-07-25 06:46:00,,0830.1,5.00,0.00,32.2,28.7,00.0,40.3,32.6,34.6,0000.1,0013.33,0007.95,0006.98
2022-07-25 06:47:00,,0830.1,5.01,0.00,32.2,28.8,00.0,40.3,32.6,34.6,0001.1,0013.34,0007.92,0006.96
2022-07-25 06:48:00,,0830.1,5.00,0.00,32.2,28.8,00.0,40.3,32.6,34.7,0001.2,0013.51,0008.03,0007.02
2022-07-25 06:49:00,,0830.1,5.00,0.00,32.1,28.9,00.0,40.3,32.6,34.8,0001.6,0013.52,0008.06,0007.06
2022-07-25 06:50:00,,0830.1,5.00,0.00,32.1,29.0,00.0,40.4,32.6,34.9,0001.5,0013.36,0008.11,0007.12
2022-07-25 06:51:00,,0830.1,5.00,0.00,32.0,29.0,00.0,40.4,32.6,35.0,0001.5,0013.40,0008.17,0007.14
2022-07-25 06:52:00,,0830.0,5.00,0.00,32.0,29.1,00.0,40.4,32.7,35.0,0002.2,0013.41,0008.18,0007.16
2022-07-25 06:53:00,,0830.1,5.00,0.00,32.2,29.1,00.0,40.4,32.8,34.7,0002.7,0013.42,0008.18,0007.16
2022-07-25 06:54:00,,0830.0,5.00,0.00,32.2,29.1,00.0,40.4,32.8,34.7,0002.7,0013.48,0008.23,0007.20
2022-07-25 06:55:00,,0830.0,5.01,0.00,32.2,29.2,00.0,40.4,32.8,34.7,0002.6,0013.52,0008.26,0007.24
2022-07-25 06:56:00,,0830.0,5.00,0.00,32.2,29.2,00.0,40.4,32.8,34.6,0002.2,0013.48,0008.28,0007.26
2022-07-25 06:57:00,,0829.9,5.00,0.00,32.2,29.3,00.0,40.4,32.8,34.6,0002.1,0012.79,0008.31,0007.31
2022-07-25 06:58:00,,0829.9,5.00,0.00,32.1,29.3,00.0,40.4,32.8,34.7,0001.9,0012.86,0008.41,0007.38
2022-07-25 06:59:00,,0829.9,5.01,0.00,32.1,29.3,00.0,40.4,32.8,34.8,0001.7,0012.74,0008.40,0007.42
